Simultaneous Nadir Overpasses (SNOs) Predictions

Prediction of SNOs between LANDSAT-8 and METOP-B Satellite Orbit:

Table of predicted SNOs for the next 14.0 days since TLE Epoch: 8/29/2025
Index Date (LANDSAT-8) Time (LANDSAT-8) Lat,Lon (LANDSAT-8) SZA (LANDSAT-8 ) Date (METOP-B) Time (METOP-B) Lat,Lon (METOP-B) SZA (METOP-B ) Distance(km) Time Diff (sec)
1 08/31/2025 00:24:46 -81.47, 40.28 104.47 08/31/2025 00:24:22 -81.47, 40.43 104.47 2.38 24
2 08/31/2025 01:14:12 81.48,-151.93 75.56 08/31/2025 01:15:02 81.47,-151.86 75.59 1.39 50
3 09/02/2025 19:59:03 -81.47, 106.71 103.43 09/02/2025 19:58:47 -81.47, 106.90 103.42 3.14 16
4 09/02/2025 20:48:29 81.48, -85.53 76.60 09/02/2025 20:49:27 81.47, -85.43 76.64 1.79 58
5 09/05/2025 15:33:19 -81.48, 173.35 102.34 09/05/2025 15:33:12 -81.47, 173.31 102.36 1.18 7
6 09/05/2025 16:22:46 81.47, -19.31 77.63 09/05/2025 16:23:53 81.47, -19.47 77.65 2.66 67
7 09/08/2025 10:18:08 81.47, 71.80 78.67 09/08/2025 10:16:56 81.47, 71.90 78.66 1.88 72
8 09/08/2025 11:07:34 -81.48,-120.19 101.27 09/08/2025 11:07:36 -81.47,-120.36 101.29 2.93 2
9 09/11/2025 05:52:23 81.47, 138.44 79.79 09/11/2025 05:51:20 81.47, 138.52 79.77 1.27 63



Historial Predications of SNOs between LANDSAT-8 and METOP-B
